Hamlet, NC

7:15 PM EDT on October 01, 2016 (GMT -0400)
Rockingham

Weather History for KRCZ - August, 2012

Change the Weather History Date:

Friday, August 3, 2012

  Actual Average (KHFF) Record (KHFF)
Temperature  
Mean Temperature 81 °F -  
Max Temperature 103 °F 88 °F 98 °F (2006)
Min Temperature 71 °F 69 °F 68 °F (2011)
Cooling Degree Days 16    
Growing Degree Days 31 (Base 50)    
Moisture  
Dew Point 70 °F    
Average Humidity 76    
Maximum Humidity 95    
Minimum Humidity 48    
Precipitation  
Precipitation 0.07 in - - ()
Sea Level Pressure  
Sea Level Pressure 30.01 in    
Wind  
Wind Speed 4 mph (South)    
Max Wind Speed 14 mph    
Max Gust Speed 23 mph    
Visibility 9 miles    
Events Rain    
Averages and records for this station are not official NWS values.
T = Trace of Precipitation, MM = Missing Value Source: NWS Daily Summary

Daily Weather History Graph

Daily Weather History Graph

Search for Another Location

Airport or City:

Trip Planner

Search our weather history database for the weather conditions in past years. The results will help you decide how hot, cold, wet, or windy it might be!

Date:

Astronomy

Aug. 03, 2012 Rise Set
Actual Time 6:30 AM EDT 8:19 PM EDT
Civil Twilight 6:02 AM EDT 8:46 PM EDT
Nautical Twilight 5:29 AM EDT 9:20 PM EDT
Astronomical Twilight 4:54 AM EDT 9:55 PM EDT
Moon 9:04 PM EDT (8/3) 8:05 AM EDT (8/3)
Length of Visible Light 14h 43m
Length of Day
13h 48m
Full, 97% of the Moon is Illuminated
Aug 3
Full
Aug 9
Last Quarter
Aug 17
New
Aug 24
First Quarter
Aug 31
Full

Hourly Weather History & Observations

Time (EDT) Temp. Heat Index Dew Point Humidity Pressure Visibility Wind Dir Wind Speed Gust Speed Precip Events Conditions
12:15 AM 72.1 °F - 69.4 °F 91% 29.95 in 10.0 mi SSE 4.6 mph - N/A   Clear
12:35 AM 72.3 °F - 69.4 °F 91% 29.96 in 10.0 mi Calm Calm - N/A   Mostly Cloudy
12:55 AM 72.0 °F - 69.4 °F 92% 29.95 in 10.0 mi Calm Calm - N/A   Scattered Clouds
1:35 AM 72.0 °F - 69.4 °F 92% 29.95 in 10.0 mi SSE 3.5 mph - N/A   Scattered Clouds
1:55 AM 71.8 °F - 69.4 °F 92% 29.95 in 7.0 mi Calm Calm - N/A   Scattered Clouds
2:15 AM 71.6 °F - 69.3 °F 92% 29.95 in 7.0 mi South 4.6 mph - N/A   Clear
2:35 AM 71.6 °F - 69.3 °F 92% 29.95 in 10.0 mi South 4.6 mph - N/A   Clear
2:55 AM 71.6 °F - 69.3 °F 92% 29.95 in 5.0 mi South 3.5 mph - N/A   Scattered Clouds
3:15 AM 71.8 °F - 69.3 °F 92% 29.96 in 7.0 mi South 4.6 mph - N/A   Mostly Cloudy
3:35 AM 72.0 °F - 69.3 °F 91% 29.96 in 10.0 mi South 4.6 mph - N/A   Mostly Cloudy
3:55 AM 72.0 °F - 69.3 °F 91% 29.97 in 7.0 mi SSE 4.6 mph - N/A   Scattered Clouds
4:15 AM 71.8 °F - 69.3 °F 92% 29.97 in 10.0 mi South 4.6 mph - N/A   Scattered Clouds
4:35 AM 71.8 °F - 69.3 °F 92% 29.97 in 10.0 mi Calm Calm - N/A   Mostly Cloudy
4:55 AM 71.8 °F - 69.1 °F 91% 29.98 in 10.0 mi South 4.6 mph - N/A   Overcast
5:15 AM 71.8 °F - 69.1 °F 91% 29.98 in 4.0 mi South 4.6 mph - N/A   Mostly Cloudy
5:35 AM 71.6 °F - 69.1 °F 92% 29.98 in 1.5 mi South 3.5 mph - N/A   Mostly Cloudy
5:55 AM 71.6 °F - 68.9 °F 91% 29.99 in 10.0 mi South 4.6 mph - N/A   Overcast
6:15 AM 71.6 °F - 68.9 °F 91% 30.00 in 10.0 mi Calm Calm - N/A   Mostly Cloudy
6:35 AM 71.6 °F - 68.9 °F 91% 30.00 in 10.0 mi Calm Calm - N/A   Mostly Cloudy
6:55 AM 71.6 °F - 68.9 °F 91% 29.99 in 4.0 mi SE 3.5 mph - 0.04 in Rain Rain
7:15 AM 71.2 °F - 69.6 °F 95% 29.99 in 5.0 mi Calm Calm - 0.01 in Rain Light Rain
7:35 AM 71.2 °F - 69.8 °F 95% 30.00 in 5.0 mi Calm Calm - 0.02 in Rain Light Rain
7:55 AM 71.4 °F - 69.6 °F 94% 30.00 in 10.0 mi Calm Calm - 0.02 in   Scattered Clouds
8:15 AM 72.3 °F - 69.6 °F 91% 30.01 in 10.0 mi South 3.5 mph - N/A   Clear
8:35 AM 73.0 °F - 70.0 °F 90% 30.03 in 10.0 mi Calm Calm - N/A   Clear
8:55 AM 73.9 °F - 70.0 °F 87% 30.04 in 10.0 mi Calm Calm - N/A   Clear
9:15 AM 74.8 °F - 70.2 °F 85% 30.04 in 10.0 mi SSW 3.5 mph - N/A   Clear
9:35 AM 76.1 °F - 70.5 °F 83% 30.04 in 10.0 mi SSW 4.6 mph - N/A   Clear
9:55 AM 77.5 °F - 70.5 °F 79% 30.04 in 10.0 mi SW 3.5 mph - N/A   Clear
10:15 AM 78.8 °F - 71.2 °F 78% 30.05 in 10.0 mi SW 5.8 mph - N/A   Clear
10:35 AM 79.7 °F - 70.2 °F 73% 30.05 in 10.0 mi South 6.9 mph - N/A   Clear
10:55 AM 80.8 °F 84.2 °F 70.2 °F 70% 30.05 in 10.0 mi SSW 8.1 mph - 0.01 in   Clear
11:15 AM 81.7 °F 85.8 °F 71.1 °F 70% 30.05 in 10.0 mi WSW 6.9 mph - N/A   Clear
11:35 AM 82.6 °F 87.6 °F 71.8 °F 70% 30.05 in 10.0 mi SSW 6.9 mph - N/A   Clear
11:55 AM 83.5 °F 88.8 °F 72.0 °F 68% 30.06 in 10.0 mi SW 3.5 mph - N/A   Clear
12:15 PM 84.7 °F 90.7 °F 72.3 °F 66% 30.05 in 10.0 mi SSW 4.6 mph - N/A   Clear
12:35 PM 85.6 °F 91.8 °F 72.3 °F 64% 30.05 in 10.0 mi SW 5.8 mph - N/A   Clear
12:55 PM 86.5 °F 92.5 °F 71.8 °F 61% 30.05 in 10.0 mi SSW 8.1 mph - N/A   Scattered Clouds
1:15 PM 87.3 °F 93.2 °F 71.2 °F 59% 30.04 in 10.0 mi West 4.6 mph - N/A   Scattered Clouds
1:35 PM 87.4 °F 94.0 °F 71.8 °F 60% 30.04 in 10.0 mi WNW 4.6 mph - N/A   Clear
1:55 PM 88.0 °F 94.7 °F 72.1 °F 59% 30.03 in 10.0 mi SW 4.6 mph - N/A   Clear
2:15 PM 89.2 °F 94.9 °F 70.7 °F 54% 30.03 in 10.0 mi SW 5.8 mph - N/A   Clear
2:35 PM 89.6 °F 95.2 °F 70.2 °F 53% 30.02 in 10.0 mi WSW 4.6 mph - N/A   Clear
2:55 PM 89.8 °F 95.6 °F 70.7 °F 53% 30.02 in 10.0 mi South 4.6 mph - N/A   Scattered Clouds
3:15 PM 90.5 °F 96.5 °F 70.5 °F 52% 30.01 in 10.0 mi SSE 9.2 mph - N/A   Scattered Clouds
3:35 PM 90.5 °F 96.0 °F 70.2 °F 51% 30.00 in 10.0 mi South 6.9 mph - N/A   Scattered Clouds
3:55 PM 90.9 °F 96.7 °F 70.3 °F 51% 30.00 in 10.0 mi SSE 6.9 mph - N/A   Scattered Clouds
4:15 PM 90.9 °F 96.2 °F 70.0 °F 50% 30.00 in 10.0 mi South 8.1 mph - N/A   Clear
4:35 PM 90.9 °F 96.2 °F 70.2 °F 50% 29.99 in 10.0 mi South 5.8 mph - N/A   Scattered Clouds
4:55 PM 91.2 °F 96.0 °F 69.3 °F 48% 29.99 in 10.0 mi South 6.9 mph - N/A   Clear
5:15 PM 90.9 °F 95.3 °F 68.5 °F 48% 29.99 in 10.0 mi SSE 5.8 mph - N/A   Scattered Clouds
5:35 PM 89.2 °F 94.5 °F 70.3 °F 53% 30.00 in 10.0 mi SSE 13.8 mph 23.0 mph N/A   Mostly Cloudy
5:55 PM 87.4 °F 93.1 °F 71.2 °F 58% 30.00 in 10.0 mi SE 8.1 mph - N/A   Scattered Clouds
6:15 PM 86.7 °F 92.9 °F 71.8 °F 61% 29.99 in 10.0 mi SE 8.1 mph - N/A   Clear
6:35 PM 86.5 °F 92.9 °F 72.0 °F 62% 29.99 in 10.0 mi SE 6.9 mph - N/A   Clear
6:55 PM 86.4 °F 93.0 °F 72.5 °F 63% 30.00 in 10.0 mi ESE 5.8 mph - N/A   Clear
7:15 PM 84.9 °F 90.7 °F 72.1 °F 65% 30.01 in 10.0 mi SE 8.1 mph - N/A   Clear
7:35 PM 83.8 °F 88.3 °F 70.7 °F 64% 30.02 in 10.0 mi SSE 6.9 mph - N/A   Clear
7:55 PM 82.9 °F 87.2 °F 70.5 °F 66% 30.03 in 10.0 mi SSE 6.9 mph - N/A   Clear
8:15 PM 81.5 °F 85.5 °F 71.1 °F 70% 30.03 in 10.0 mi SE 10.4 mph - N/A   Clear
8:35 PM 80.4 °F 84.1 °F 71.1 °F 73% 30.04 in 10.0 mi SE 6.9 mph - N/A   Clear
8:55 PM 79.9 °F - 71.1 °F 74% 30.05 in 10.0 mi SSE 8.1 mph - N/A   Clear
9:35 PM 79.0 °F - 71.4 °F 78% 30.08 in 10.0 mi SE 5.8 mph - N/A   Clear
9:55 PM 78.8 °F - 71.6 °F 78% 30.08 in 10.0 mi SSE 8.1 mph - N/A   Clear
10:15 PM 78.4 °F - 71.6 °F 79% 30.08 in 10.0 mi SE 6.9 mph - N/A   Clear
10:35 PM 78.3 °F - 71.8 °F 80% 30.09 in 10.0 mi SE 8.1 mph - N/A   Clear
10:55 PM 77.9 °F - 72.1 °F 82% 30.09 in 10.0 mi SE 6.9 mph - N/A   Clear
11:15 PM 77.5 °F - 72.5 °F 84% 30.09 in 10.0 mi SSE 8.1 mph - N/A   Clear
11:35 PM 77.7 °F - 72.7 °F 84% 30.08 in 10.0 mi SSE 10.4 mph - N/A   Clear
11:55 PM 77.4 °F - 72.9 °F 86% 30.08 in 10.0 mi SSE 6.9 mph - N/A   Clear